FW1757 Weather Reports


time (UTC)temp
C
wind
direction
speed
KPH
gust
KPH
rain 1hr
cm
rain 24hr
cm
rain mn
cm
humidity
%
barometer
mb
20260903084543 10 360 0.0 0.0 0.00 0.53 0.00 1 1008.9
20260903084042 10 360 0.0 0.0 0.00 0.53 0.00 1 1008.8
20260903083540 10 360 0.0 0.0 0.00 0.53 0.00 1 1008.7
20260903083038 10 360 0.0 0.0 0.00 0.53 0.00 1 1008.7
20260903082539 10 360 0.0 0.0 0.00 0.53 0.00 1 1008.7
20260903082036 10 360 0.0 0.0 0.00 0.53 0.00 1 1008.6
20260903081534 10 360 0.0 0.0 0.00 0.53 0.00 1 1008.8
20260903081036 10 360 0.0 0.0 0.00 0.53 0.00 1 1008.8
20260903080533 10 360 0.0 0.0 0.00 0.53 0.00 1 1008.6
20260903080030 10 360 0.0 0.0 0.00 0.53 0.00 1 1008.7
20260903075529 10 360 0.0 0.0 0.00 0.53 0.00 1 1008.6
20260903075030 10 360 0.0 0.0 0.00 0.53 0.00 1 1008.5
20260903074525 10 360 0.0 0.0 0.00 0.53 0.00 1 1008.5
20260903074024 10 360 0.0 0.0 0.00 0.53 0.00 1 1008.5
20260903073522 10 360 0.0 0.0 0.00 0.53 0.00 1 1008.4
20260903073047 10 360 0.0 0.0 0.00 0.53 0.00 1 1008.2
20260903072509 11 360 0.0 0.0 0.00 0.53 0.00 1 1008.1
20260903072008 11 360 0.0 0.0 0.00 0.53 0.00 1 1008.1
20260903071507 11 360 0.0 0.0 0.00 0.53 0.00 1 1008.1
20260903071004 11 360 0.0 0.0 0.00 0.53 0.00 1 1008.1
20260903070503 11 360 0.0 0.0 0.00 0.53 0.00 1 1008.0
20260903070003 11 360 0.0 0.0 0.00 0.53 0.53 1 1008.1
20260903065600 11 360 0.0 0.0 0.00 0.53 0.53 1 1008.0
20260903065059 11 360 0.0 0.0 0.00 0.53 0.53 1 1008.0
20260903064601 11 360 0.0 0.0 0.00 0.53 0.53 1 1008.0
20260903064056 11 360 0.0 0.0 0.00 0.53 0.53 1 1008.0
20260903063556 11 360 0.0 0.0 0.00 0.53 0.53 1 1008.0
20260903063113 11 360 0.0 0.0 0.00 0.53 0.53 1 1008.0
20260903062553 11 360 0.0 0.0 0.00 0.53 0.53 1 1007.9
20260903062049 11 182 0.0 0.0 0.00 0.53 0.53 1 1008.0
20260903061549 11 182 0.0 0.0 0.00 0.53 0.53 1 1008.0
20260903061051 11 182 0.0 0.0 0.00 0.53 0.53 1 1008.0
20260903060545 11 200 0.0 0.0 0.00 0.53 0.53 1 1008.1
20260903060044 12 231 0.0 0.0 0.00 0.53 0.53 1 1007.9
20260903055544 12 235 0.0 0.0 0.00 0.53 0.53 1 1008.0
20260903055044 12 235 0.0 0.0 0.00 0.53 0.53 1 1008.0
20260903054540 12 274 0.0 0.0 0.00 0.53 0.53 1 1007.7
20260903054038 12 234 0.0 0.0 0.00 0.53 0.53 1 1007.8
20260903053537 12 228 0.0 0.0 0.00 0.53 0.53 1 1007.9
20260903053036 12 228 0.0 0.0 0.00 0.53 0.53 1 1007.9
20260903052534 12 228 0.0 0.0 0.00 0.53 0.53 1 1007.8
20260903052033 12 226 0.0 0.0 0.00 0.53 0.53 1 1007.9
20260903051532 12 226 0.0 0.0 0.00 0.53 0.53 1 1008.0
20260903051029 12 226 0.0 0.0 0.00 0.53 0.53 1 1007.9
20260903050528 12 226 0.0 0.0 0.00 0.53 0.53 1 1007.8
20260903050027 12 236 0.0 0.0 0.00 0.53 0.53 1 1007.8
20260903045528 12 236 0.0 0.0 0.00 0.53 0.53 1 1007.7
20260903045023 12 236 0.0 0.0 0.00 0.53 0.53 1 1007.8
20260903044523 12 236 0.0 0.0 0.03 0.53 0.53 1 1007.7
20260903044023 12 236 0.0 0.0 0.03 0.53 0.53 1 1007.8
20260903043519 12 236 0.0 0.0 0.03 0.53 0.53 1 1007.7
20260903043017 12 244 0.0 0.0 0.03 0.53 0.53 1 1007.7
20260903042516 12 227 0.0 0.0 0.03 0.53 0.53 1 1007.6
20260903042015 12 250 0.0 0.0 0.03 0.53 0.53 1 1007.5
20260903041513 12 217 0.0 0.0 0.03 0.53 0.53 1 1007.5
20260903041011 12 226 0.0 0.0 0.03 0.53 0.53 1 1007.4
20260903040510 12 237 0.0 0.0 0.03 0.53 0.53 1 1007.2
20260903040009 12 237 0.0 0.0 0.03 0.53 0.53 1 1007.2
20260903035506 13 284 0.0 0.0 0.03 0.53 0.53 1 1007.2
20260903035005 13 306 0.0 0.0 0.00 0.51 0.51 1 1007.2
20260903034512 13 290 0.0 0.0 0.00 0.51 0.51 1 1007.1
20260903034002 13 285 0.0 0.0 0.03 0.51 0.51 1 1006.9
20260903033500 13 280 0.0 0.0 0.08 0.51 0.51 1 1007.1
20260903033102 13 280 0.0 0.0 0.10 0.51 0.51 1 1007.0
20260903032558 13 293 0.0 0.0 0.10 0.51 0.51 1 1006.9
20260903032057 13 293 0.0 0.0 0.13 0.51 0.51 1 1006.8
20260903031555 13 280 0.0 0.0 0.13 0.51 0.51 1 1006.7
20260903031056 13 281 0.0 0.0 0.15 0.51 0.51 1 1006.7
20260903030554 13 305 0.0 0.0 0.15 0.51 0.51 1 1006.7
20260903030104 13 289 0.0 0.0 0.15 0.51 0.51 1 1006.6
20260903025549 13 281 0.0 0.0 0.15 0.51 0.51 1 1006.6
20260903025049 14 281 0.0 0.0 0.15 0.51 0.51 1 1006.7
20260903024546 14 262 0.0 0.0 0.15 0.51 0.51 1 1006.6
20260903024044 14 263 0.0 0.0 0.13 0.48 0.48 1 1006.5
20260903023545 14 281 0.0 0.0 0.08 0.43 0.43 1 1006.6
20260903023043 14 281 0.0 0.0 0.05 0.41 0.41 1 1006.5
20260903022541 14 292 0.0 0.0 0.05 0.41 0.41 1 1006.5
20260903022043 15 286 0.0 0.0 0.05 0.38 0.38 1 1006.6
20260903021538 15 287 0.0 0.0 0.05 0.38 0.38 1 1006.5
20260903021037 15 25 0.0 0.0 0.03 0.36 0.36 1 1006.3
20260903020534 15 25 0.0 0.0 0.03 0.36 0.36 1 1005.9
20260903020043 15 25 0.0 0.0 0.03 0.36 0.36 1 1005.9
20260903015532 15 25 0.0 0.0 0.03 0.36 0.36 1 1005.9
20260903015029 15 25 0.0 0.0 0.03 0.36 0.36 1 1005.9
20260903014528 15 25 0.0 0.0 0.03 0.36 0.36 1 1005.9
20260903014029 15 25 0.0 0.0 0.05 0.36 0.36 1 1006.0
20260903013526 15 25 0.0 0.0 0.05 0.36 0.36 1 1006.0
20260903013025 15 25 0.0 0.0 0.05 0.36 0.36 1 1006.1
20260903012523 15 25 0.0 0.0 0.05 0.36 0.36 1 1005.9
20260903012021 15 25 0.0 0.0 0.03 0.33 0.33 1 1006.1
20260903011520 15 25 0.0 0.0 0.03 0.33 0.33 1 1005.8
20260903011019 15 25 0.0 0.0 0.03 0.33 0.33 2 1006.0
20260903010517 15 25 0.0 0.0 0.03 0.33 0.33 3 1006.1
20260903010016 15 25 0.0 0.0 0.03 0.33 0.33 3 1006.0
20260903005514 15 25 0.0 0.0 0.03 0.33 0.33 2 1006.2
20260903005012 15 25 0.0 0.0 0.03 0.33 0.33 2 1006.0
20260903004511 15 25 0.0 0.0 0.03 0.33 0.33 3 1006.3
20260903004010 15 25 0.0 0.0 0.03 0.30 0.30 4 1006.2
20260903003509 15 25 0.0 0.0 0.03 0.30 0.30 3 1006.4
20260903003008 15 25 0.0 0.0 0.03 0.30 0.30 3 1006.2
20260903002507 15 25 0.0 0.0 0.03 0.30 0.30 4 1006.2
20260903002003 16 25 0.0 0.0 0.03 0.30 0.30 4 1006.2
20260903001503 16 25 0.0 0.0 0.03 0.30 0.30 7 1006.1
20260903001003 16 25 0.0 0.0 0.03 0.30 0.30 9 1006.1
20260903000600 16 25 0.0 0.0 0.03 0.30 0.30 10 1006.1
20260903000059 16 25 0.0 0.0 0.03 0.30 0.30 10 1006.1
20260902235557 16 25 0.0 0.0 0.03 0.30 0.30 7 1006.1
20260902235058 16 25 0.0 0.0 0.03 0.30 0.30 7 1005.9
20260902234554 16 25 0.0 0.0 0.03 0.30 0.30 6 1006.0
20260902234052 16 25 0.0 0.0 0.00 0.28 0.28 8 1006.1
20260902233551 16 25 0.0 0.0 0.00 0.28 0.28 7 1006.3
20260902233100 16 25 0.0 0.0 0.00 0.28 0.28 8 1006.3
20260902232548 16 25 0.0 0.0 0.00 0.28 0.28 8 1006.2
20260902232048 16 61 0.0 0.0 0.03 0.28 0.28 7 1006.3
20260902231547 16 61 0.0 0.0 0.03 0.28 0.28 8 1006.4
20260902231046 16 61 0.0 0.0 0.03 0.28 0.28 7 1006.5
20260902230542 16 61 0.0 0.0 0.03 0.28 0.28 7 1006.4
20260902230042 16 61 0.0 0.0 0.03 0.28 0.28 8 1006.2
20260902225541 16 61 0.0 0.0 0.03 0.28 0.28 8 1006.3
20260902225041 16 61 0.0 0.0 0.05 0.28 0.28 14 1006.3
20260902224549 16 61 0.0 0.0 0.05 0.28 0.28 15 1006.2
20260902224038 16 61 0.0 0.0 0.05 0.28 0.28 14 1006.2
20260902223538 16 61 0.0 0.0 0.05 0.28 0.28 14 1006.2
20260902223053 16 61 0.0 0.0 0.08 0.28 0.28 14 1006.3
20260902222537 16 61 0.0 0.0 0.08 0.28 0.28 16 1006.0
20260902222037 16 61 0.0 0.0 0.05 0.25 0.25 17 1006.1
20260902221539 16 61 0.0 0.0 0.05 0.25 0.25 18 1006.1
20260902221036 16 61 0.0 0.0 0.08 0.25 0.25 24 1006.1
20260902220534 16 61 0.0 0.0 0.08 0.25 0.25 28 1006.0
20260902220036 16 61 0.0 0.0 0.08 0.25 0.25 28 1005.9
20260902215532 16 61 0.0 0.0 0.10 0.25 0.25 26 1005.7
20260902215032 16 61 0.0 0.0 0.08 0.23 0.23 28 1005.6
20260902214533 16 61 0.0 0.0 0.08 0.23 0.23 33 1005.8
20260902214031 16 60 0.0 0.0 0.10 0.23 0.23 36 1005.8
20260902213529 16 60 0.0 0.0 0.08 0.20 0.20 38 1005.7
20260902213029 16 62 0.0 0.0 0.08 0.20 0.20 40 1005.8
20260902212529 16 64 0.0 0.0 0.10 0.20 0.20 40 1005.9
20260902212028 16 23 0.0 0.0 0.10 0.20 0.20 43 1005.9
20260902211530 16 134 0.0 0.0 0.08 0.18 0.18 42 1006.0
20260902211028 16 151 0.0 0.0 0.08 0.18 0.18 42 1006.0
20260902210528 16 151 0.0 0.0 0.08 0.18 0.18 45 1006.1
20260902210029 16 151 0.0 0.0 0.08 0.18 0.18 49 1006.3
20260902205527 16 151 0.0 0.0 0.08 0.15 0.15 51 1006.3
20260902205032 17 151 0.0 0.0 0.08 0.15 0.15 51 1006.3
20260902204539 17 142 0.0 0.0 0.05 0.13 0.13 48 1006.4
20260902204031 17 142 0.0 0.0 0.08 0.13 0.13 45 1006.3
20260902203533 17 142 0.0 0.0 0.08 0.13 0.13 45 1006.3
20260902203026 17 142 0.0 0.0 0.10 0.13 0.13 43 1006.2
20260902202526 17 142 0.0 0.0 0.08 0.10 0.10 46 1006.2
20260902202025 17 142 0.0 0.0 0.08 0.10 0.10 50 1006.2
20260902201524 17 142 0.0 0.0 0.08 0.10 0.10 52 1006.1
20260902201023 17 142 0.0 0.0 0.10 0.10 0.10 55 1006.1
20260902200522 17 142 0.0 0.0 0.10 0.10 0.10 62 1006.0
20260902200022 17 142 0.0 0.0 0.10 0.10 0.10 62 1006.0
20260902195521 17 142 0.0 0.0 0.08 0.08 0.08 65 1006.1
20260902195022 17 142 0.0 0.0 0.08 0.08 0.08 68 1006.0
20260902194525 17 142 0.0 0.0 0.08 0.08 0.08 70 1006.1
20260902194021 17 137 0.0 0.0 0.05 0.05 0.05 70 1006.1
20260902193522 17 136 0.0 0.0 0.05 0.05 0.05 71 1006.1
20260902193021 18 132 0.0 0.0 0.03 0.03 0.03 71 1005.9
20260902192520 18 116 0.0 0.0 0.03 0.03 0.03 70 1005.9
20260902192021 18 116 0.0 0.0 0.03 0.03 0.03 70 1005.9
20260902191521 18 116 0.0 0.0 0.03 0.03 0.03 70 1005.8
20260902191020 18 116 0.0 0.0 0.00 0.00 0.00 69 1005.7
20260902190520 18 116 0.0 0.0 0.00 0.00 0.00 67 1005.8
20260902190021 18 116 0.0 0.0 0.00 0.00 0.00 63 1005.7
20260902185519 18 116 0.0 0.0 0.00 0.00 0.00 61 1005.8
20260902185019 18 113 0.0 0.0 0.00 0.00 0.00 60 1005.8
20260902184528 18 161 0.0 0.0 0.00 0.00 0.00 59 1005.7
20260902184017 18 161 0.0 0.0 0.00 0.00 0.00 58 1005.7
20260902183517 18 161 0.0 0.0 0.00 0.00 0.00 58 1005.7
20260902183035 18 161 0.0 0.0 0.00 0.00 0.00 58 1005.6
20260902182515 18 159 0.0 0.0 0.00 0.00 0.00 58 1005.7
20260902182015 18 161 0.0 0.0 0.00 0.00 0.00 58 1005.7
20260902181517 18 161 0.0 0.0 0.00 0.00 0.00 59 1005.7
20260902181014 18 160 0.0 0.0 0.00 0.00 0.00 58 1005.8
20260902180514 18 152 0.0 0.0 0.00 0.00 0.00 59 1005.8
20260902180014 18 153 0.0 0.0 0.00 0.00 0.00 60 1005.7
20260902175512 18 36 0.0 0.0 0.00 0.00 0.00 62 1005.8
20260902175011 18 38 0.0 0.0 0.00 0.00 0.00 62 1005.8
20260902174516 18 40 0.0 0.0 0.00 0.00 0.00 62 1005.8
20260902174009 18 52 0.0 0.0 0.00 0.00 0.00 62 1005.8
20260902173508 17 30 0.0 0.0 0.00 0.00 0.00 64 1005.9
20260902173011 17 19 0.0 0.0 0.00 0.00 0.00 64 1006.0
20260902172507 17 68 0.0 0.0 0.00 0.00 0.00 63 1006.1
20260902172007 17 49 0.0 0.0 0.00 0.00 0.00 64 1006.2
20260902171505 17 36 0.0 0.0 0.00 0.00 0.00 64 1006.2
20260902171004 17 40 0.0 0.0 0.00 0.00 0.00 64 1006.3
20260902170504 17 63 0.0 0.0 0.00 0.00 0.00 65 1006.2
20260902170003 17 5 0.0 0.0 0.00 0.00 0.00 66 1006.3
20260902165501 17 23 0.0 0.0 0.00 0.00 0.00 66 1006.4
20260902165100 17 258 0.0 0.0 0.00 0.00 0.00 66 1006.4
20260902164605 16 258 0.0 0.0 0.00 0.00 0.00 66 1006.5
20260902164058 16 234 0.0 0.0 0.00 0.00 0.00 68 1006.5
20260902163558 16 225 0.0 0.0 0.00 0.00 0.00 69 1006.5
20260902163102 16 225 0.0 0.0 0.00 0.00 0.00 69 1006.5
20260902162556 16 225 0.0 0.0 0.00 0.00 0.00 69 1006.6
20260902162057 16 224 0.0 0.0 0.00 0.00 0.00 70 1006.6
20260902161558 16 224 0.0 0.0 0.00 0.00 0.00 70 1006.8
20260902161058 15 224 0.0 0.0 0.00 0.00 0.00 71 1006.8
20260902160556 15 224 0.0 0.0 0.00 0.00 0.00 71 1006.7
20260902160056 15 224 0.0 0.0 0.00 0.00 0.00 71 1006.8
20260902155555 15 224 0.0 0.0 0.00 0.00 0.00 71 1006.8
20260902155055 15 201 0.0 0.0 0.00 0.00 0.00 72 1006.9
20260902154554 15 199 0.0 0.0 0.00 0.00 0.00 72 1006.8
20260902154054 15 199 0.0 0.0 0.00 0.00 0.00 72 1006.9
20260902153555 15 199 0.0 0.0 0.00 0.00 0.00 72 1007.0
20260902153105 14 199 0.0 0.0 0.00 0.00 0.00 71 1007.1
20260902152558 14 199 0.0 0.0 0.00 0.00 0.00 71 1007.2
20260902152052 14 199 0.0 0.0 0.00 0.00 0.00 70 1007.2
20260902151554 14 199 0.0 0.0 0.00 0.00 0.00 71 1007.1
20260902151055 14 199 0.0 0.0 0.00 0.00 0.00 71 1007.2
20260902150551 13 199 0.0 0.0 0.00 0.00 0.00 70 1007.2
20260902150051 13 199 0.0 0.0 0.00 0.00 0.00 70 1007.4
20260902145550 13 199 0.0 0.0 0.00 0.00 0.00 69 1007.4
20260902145053 13 199 0.0 0.0 0.00 0.00 0.00 69 1007.4
20260902144550 13 199 0.0 0.0 0.00 0.00 0.00 70 1007.4
20260902144050 13 199 0.0 0.0 0.00 0.00 0.00 70 1007.3
20260902143550 13 199 0.0 0.0 0.00 0.00 0.00 70 1007.4
20260902143052 13 199 0.0 0.0 0.00 0.00 0.00 70 1007.6
20260902142549 13 199 0.0 0.0 0.00 0.00 0.00 71 1007.6
20260902142049 13 199 0.0 0.0 0.00 0.00 0.00 71 1007.6
20260902141549 13 199 0.0 0.0 0.00 0.00 0.00 71 1007.6
20260902141048 13 199 0.0 0.0 0.00 0.00 0.00 71 1007.5
20260902140549 13 199 0.0 0.0 0.00 0.00 0.00 71 1007.6
20260902140051 13 199 0.0 0.0 0.00 0.00 0.00 72 1007.7
20260902135548 13 199 0.0 0.0 0.00 0.00 0.00 72 1007.7
20260902135047 13 199 0.0 0.0 0.00 0.00 0.00 72 1007.6
20260902134548 13 199 0.0 0.0 0.00 0.00 0.00 72 1007.5
20260902134046 13 199 0.0 0.0 0.00 0.00 0.00 72 1007.4
20260902133545 13 197 0.0 0.0 0.00 0.00 0.00 72 1007.7
20260902133044 13 198 0.0 0.0 0.00 0.00 0.00 72 1007.7
20260902132543 13 198 0.0 0.0 0.00 0.00 0.00 72 1007.8
20260902132043 13 198 0.0 0.0 0.00 0.00 0.00 72 1007.9
20260902131543 13 198 0.0 0.0 0.00 0.00 0.00 72 1007.9
20260902131043 13 194 0.0 0.0 0.00 0.00 0.00 72 1007.9
20260902130543 13 183 0.0 0.0 0.00 0.00 0.00 72 1008.0
20260902130043 13 186 0.0 0.0 0.00 0.00 0.00 72 1007.9
20260902125542 13 188 0.0 0.0 0.00 0.00 0.00 72 1008.0
20260902125141 13 215 0.0 0.0 0.00 0.00 0.00 72 1008.0
20260902124541 13 149 0.0 0.0 0.00 0.00 0.00 72 1007.9
20260902124041 13 145 0.0 0.0 0.00 0.00 0.00 72 1007.9
20260902123539 13 150 0.0 0.0 0.00 0.00 0.00 72 1007.9
20260902123039 14 148 0.0 0.0 0.00 0.00 0.00 71 1008.0
20260902122539 14 221 0.0 0.0 0.00 0.00 0.00 72 1008.0
20260902122037 14 221 0.0 0.0 0.00 0.00 0.00 71 1008.0
20260902121539 14 221 0.0 0.0 0.00 0.00 0.00 71 1007.8
20260902121037 14 221 0.0 0.0 0.00 0.00 0.00 71 1007.9
20260902120537 14 221 0.0 0.0 0.00 0.00 0.00 71 1007.9
20260902120036 14 234 0.0 0.0 0.00 0.00 0.00 71 1008.0
20260902115535 14 242 0.0 0.0 0.00 0.00 0.00 71 1008.0
20260902115035 14 227 0.0 0.0 0.00 0.00 0.00 71 1008.1
20260902114535 15 222 0.0 0.0 0.00 0.00 0.00 71 1008.0
20260902114034 15 222 0.0 0.0 0.00 0.00 0.00 71 1008.1
20260902113533 15 222 0.0 0.0 0.00 0.00 0.00 71 1008.0
20260902113034 15 222 0.0 0.0 0.00 0.00 0.00 71 1008.0
20260902112533 15 259 0.0 0.0 0.00 0.00 0.00 71 1008.1
20260902112033 15 259 0.0 0.0 0.00 0.00 0.00 71 1008.1
20260902111533 15 260 0.0 0.0 0.00 0.00 0.00 71 1008.1
20260902111158 15 263 0.0 0.0 0.00 0.00 0.00 71 1008.0
20260902110534 15 296 0.0 0.0 0.00 0.00 0.00 71 1008.1
20260902110044 15 296 0.0 0.0 0.00 0.00 0.00 71 1008.0
20260902105532 15 266 0.0 0.0 0.00 0.00 0.00 71 1008.0
20260902105032 15 263 0.0 0.0 0.00 0.00 0.00 71 1008.1
20260902104550 15 288 0.0 0.0 0.00 0.00 0.00 72 1007.9
20260902104030 15 267 0.0 0.0 0.00 0.00 0.00 72 1007.9
20260902103529 15 273 0.0 0.0 0.00 0.00 0.00 71 1008.1
20260902103046 15 264 0.0 0.0 0.00 0.00 0.00 71 1008.2
20260902102530 15 248 0.0 0.0 0.00 0.00 0.00 71 1008.1
20260902102029 15 213 0.0 0.0 0.00 0.00 0.00 71 1008.2
20260902101528 15 223 0.0 0.0 0.00 0.00 0.00 71 1008.2
20260902101030 15 271 0.0 0.0 0.00 0.00 0.00 71 1008.2
20260902100528 15 263 0.0 0.0 0.00 0.00 0.00 71 1008.2
20260902100028 15 196 0.0 0.0 0.00 0.00 0.00 71 1008.3
20260902095528 15 252 0.0 0.0 0.00 0.00 0.00 71 1008.3
20260902095027 15 277 0.0 0.0 0.00 0.00 0.00 71 1008.3
20260902094528 15 254 0.0 0.0 0.00 0.00 0.00 71 1008.2
20260902094027 15 267 0.0 0.0 0.00 0.00 0.00 71 1008.3
20260902093527 15 272 0.0 0.0 0.00 0.00 0.00 71 1008.1
20260902093026 15 293 0.0 0.0 0.00 0.00 0.00 71 1008.3
20260902092528 15 298 0.0 0.0 0.00 0.00 0.00 71 1008.4
20260902092026 15 251 0.0 0.0 0.00 0.00 0.00 71 1008.4
20260902091527 15 263 0.0 0.0 0.00 0.00 0.00 71 1008.3
20260902091026 15 268 0.0 0.0 0.00 0.00 0.00 71 1008.4
20260902090525 15 286 0.0 0.0 0.00 0.00 0.00 71 1008.4
20260902090029 15 288 0.0 0.0 0.00 0.00 0.00 71 1008.4
20260902085528 15 281 0.0 0.0 0.00 0.00 0.00 71 1008.4
20260902085024 15 290 0.0 0.0 0.00 0.00 0.00 71 1008.3